Time,TemperatureF,DewpointF,PressureIn,WindDirection,WindDirectionDegrees,WindSpeedMPH,WindSpeedGustMPH,Humidity,HourlyPrecipIn,Conditions,Clouds,dailyrainin,SoftwareType,DateUTC
2013-09-21 00:04:00,68.6,64.0,29.90,NNE,24,6.0,16.0,84,0.00,,,0.00,weatherlink.com 1.10,2013-09-21 05:04:00,
2013-09-21 00:19:00,68.5,63.0,29.90,NNE,22,4.0,13.0,82,0.01,,,0.01,weatherlink.com 1.10,2013-09-21 05:19:00,
2013-09-21 00:34:00,68.2,63.0,29.91,NNE,19,5.0,12.0,82,0.01,,,0.01,weatherlink.com 1.10,2013-09-21 05:34:00,
2013-09-21 00:49:00,68.0,61.0,29.91,NE,44,6.0,16.0,79,0.01,,,0.01,weatherlink.com 1.10,2013-09-21 05:49:00,
2013-09-21 01:04:00,67.7,61.0,29.91,North,11,5.0,12.0,79,0.01,,,0.01,weatherlink.com 1.10,2013-09-21 06:04:00,
2013-09-21 01:19:00,67.3,61.0,29.90,North,355,7.0,12.0,79,0.00,,,0.01,weatherlink.com 1.10,2013-09-21 06:19:00,
2013-09-21 01:34:00,66.8,60.0,29.90,NNW,346,4.0,11.0,79,0.00,,,0.01,weatherlink.com 1.10,2013-09-21 06:34:00,
2013-09-21 01:49:00,66.7,60.0,29.90,North,5,8.0,12.0,78,0.00,,,0.01,weatherlink.com 1.10,2013-09-21 06:49:00,
2013-09-21 02:19:00,67.0,59.0,29.90,North,360,7.0,13.0,76,0.00,,,0.01,weatherlink.com 1.10,2013-09-21 07:19:00,
2013-09-21 02:35:00,67.0,59.0,29.91,North,355,5.0,12.0,75,0.00,,,0.01,weatherlink.com 1.10,2013-09-21 07:35:00,
2013-09-21 02:50:00,66.5,59.0,29.90,NNE,19,8.0,12.0,76,0.00,,,0.01,weatherlink.com 1.10,2013-09-21 07:50:00,
2013-09-21 03:05:00,66.1,59.0,29.90,NNE,22,6.0,13.0,77,0.00,,,0.01,weatherlink.com 1.10,2013-09-21 08:05:00,
2013-09-21 03:20:00,65.6,58.0,29.90,NNE,19,6.0,13.0,77,0.00,,,0.01,weatherlink.com 1.10,2013-09-21 08:20:00,
2013-09-21 03:35:00,65.2,58.0,29.90,NNW,340,5.0,11.0,78,0.00,,,0.01,weatherlink.com 1.10,2013-09-21 08:35:00,
2013-09-21 03:50:00,65.0,58.0,29.90,North,5,4.0,13.0,79,0.00,,,0.01,weatherlink.com 1.10,2013-09-21 08:50:00,
2013-09-21 04:05:00,64.9,59.0,29.90,NNW,336,5.0,12.0,80,0.00,,,0.01,weatherlink.com 1.10,2013-09-21 09:05:00,
2013-09-21 04:20:00,64.8,59.0,29.90,NNE,17,6.0,10.0,81,0.00,,,0.01,weatherlink.com 1.10,2013-09-21 09:20:00,
2013-09-21 04:35:00,64.5,59.0,29.90,NNE,22,8.0,13.0,81,0.00,,,0.01,weatherlink.com 1.10,2013-09-21 09:35:00,
2013-09-21 04:50:00,64.3,59.0,29.90,NNW,340,5.0,11.0,82,0.00,,,0.01,weatherlink.com 1.10,2013-09-21 09:50:00,
2013-09-21 05:05:00,64.1,59.0,29.90,NNE,14,9.0,12.0,82,0.00,,,0.01,weatherlink.com 1.10,2013-09-21 10:05:00,
2013-09-21 05:21:00,63.8,58.0,29.91,NNE,19,8.0,11.0,82,0.00,,,0.01,weatherlink.com 1.10,2013-09-21 10:21:00,
2013-09-21 05:35:00,63.5,58.0,29.91,North,360,3.0,10.0,82,0.00,,,0.01,weatherlink.com 1.10,2013-09-21 10:35:00,
2013-09-21 05:50:00,63.2,58.0,29.91,NE,43,5.0,13.0,82,0.00,,,0.01,weatherlink.com 1.10,2013-09-21 10:50:00,
2013-09-21 06:05:00,62.8,57.0,29.91,NNE,12,9.0,15.0,82,0.00,,,0.01,weatherlink.com 1.10,2013-09-21 11:05:00,
2013-09-21 06:20:00,62.4,57.0,29.92,ENE,67,9.0,11.0,82,0.00,,,0.01,weatherlink.com 1.10,2013-09-21 11:20:00,
2013-09-21 06:35:00,62.1,57.0,29.92,NE,35,6.0,12.0,82,0.00,,,0.01,weatherlink.com 1.10,2013-09-21 11:35:00,
2013-09-21 06:50:00,61.7,56.0,29.93,NNE,26,5.0,10.0,82,0.00,,,0.01,weatherlink.com 1.10,2013-09-21 11:50:00,
2013-09-21 07:05:00,61.4,56.0,29.93,NNW,346,6.0,9.0,83,0.00,,,0.01,weatherlink.com 1.10,2013-09-21 12:05:00,
2013-09-21 07:20:00,61.0,56.0,29.94,NNW,346,5.0,7.0,83,0.00,,,0.01,weatherlink.com 1.10,2013-09-21 12:20:00,
2013-09-21 07:35:00,60.7,56.0,29.94,NNE,13,3.0,9.0,83,0.00,,,0.01,weatherlink.com 1.10,2013-09-21 12:35:00,
2013-09-21 07:50:00,61.0,56.0,29.94,NNE,24,4.0,9.0,82,0.00,,,0.01,weatherlink.com 1.10,2013-09-21 12:50:00,
2013-09-21 08:05:00,61.5,56.0,29.94,NNW,333,2.0,12.0,81,0.00,,,0.01,weatherlink.com 1.10,2013-09-21 13:05:00,
2013-09-21 08:20:00,61.8,56.0,29.94,NNE,24,6.0,10.0,80,0.00,,,0.01,weatherlink.com 1.10,2013-09-21 13:20:00,
2013-09-21 08:35:00,62.5,56.0,29.94,NNW,339,2.0,12.0,78,0.00,,,0.01,weatherlink.com 1.10,2013-09-21 13:35:00,
2013-09-21 08:50:00,63.1,55.0,29.95,NNE,19,9.0,13.0,76,0.00,,,0.01,weatherlink.com 1.10,2013-09-21 13:50:00,
2013-09-21 09:05:00,63.8,56.0,29.96,NNE,19,2.0,12.0,75,0.00,,,0.01,weatherlink.com 1.10,2013-09-21 14:05:00,
2013-09-21 09:35:00,65.9,55.0,29.96,NNE,25,2.0,11.0,68,0.00,,,0.01,weatherlink.com 1.10,2013-09-21 14:35:00,
2013-09-21 09:50:00,66.9,55.0,29.97,NE,43,1.0,14.0,65,0.00,,,0.01,weatherlink.com 1.10,2013-09-21 14:50:00,
2013-09-21 10:06:00,67.9,55.0,29.97,North,11,7.0,10.0,63,0.00,,,0.01,weatherlink.com 1.10,2013-09-21 15:06:00,
2013-09-21 10:21:00,69.0,54.0,29.96,NNE,21,5.0,13.0,59,0.00,,,0.01,weatherlink.com 1.10,2013-09-21 15:21:00,
2013-09-21 10:36:00,69.8,53.0,29.96,NNE,13,13.0,15.0,55,0.00,,,0.01,weatherlink.com 1.10,2013-09-21 15:36:00,
2013-09-21 10:51:00,70.8,54.0,29.96,North,10,1.0,9.0,55,0.00,,,0.01,weatherlink.com 1.10,2013-09-21 15:51:00,
2013-09-21 11:06:00,72.0,53.0,29.96,NNE,23,3.0,11.0,52,0.00,,,0.01,weatherlink.com 1.10,2013-09-21 16:06:00,
2013-09-21 11:21:00,73.8,53.0,29.95,NNE,17,6.0,11.0,48,0.00,,,0.01,weatherlink.com 1.10,2013-09-21 16:21:00,
2013-09-21 11:36:00,75.1,51.0,29.95,NNE,21,2.0,11.0,43,0.00,,,0.01,weatherlink.com 1.10,2013-09-21 16:36:00,
2013-09-21 11:51:00,75.4,53.0,29.95,NNE,30,5.0,10.0,45,0.00,,,0.01,weatherlink.com 1.10,2013-09-21 16:51:00,
2013-09-21 12:06:00,76.1,51.0,29.94,North,355,10.0,14.0,41,0.00,,,0.01,weatherlink.com 1.10,2013-09-21 17:06:00,
2013-09-21 12:21:00,77.2,50.0,29.94,NNE,16,4.0,15.0,38,0.00,,,0.01,weatherlink.com 1.10,2013-09-21 17:21:00,
2013-09-21 12:36:00,78.1,49.0,29.93,NNE,24,4.0,12.0,36,0.00,,,0.01,weatherlink.com 1.10,2013-09-21 17:36:00,
2013-09-21 12:51:00,78.9,50.0,29.93,NW,322,4.0,13.0,36,0.00,,,0.01,weatherlink.com 1.10,2013-09-21 17:51:00,
2013-09-21 13:06:00,79.3,49.0,29.93,North,5,4.0,11.0,34,0.00,,,0.01,weatherlink.com 1.10,2013-09-21 18:06:00,
2013-09-21 13:21:00,79.5,48.0,29.92,NNE,15,10.0,13.0,33,0.00,,,0.01,weatherlink.com 1.10,2013-09-21 18:21:00,
2013-09-21 13:36:00,80.5,48.0,29.91,NNE,26,5.0,12.0,32,0.00,,,0.01,weatherlink.com 1.10,2013-09-21 18:36:00,
2013-09-21 13:51:00,81.0,48.0,29.91,NNE,18,1.0,11.0,32,0.00,,,0.01,weatherlink.com 1.10,2013-09-21 18:51:00,
2013-09-21 14:06:00,80.6,49.0,29.90,North,360,3.0,16.0,33,0.00,,,0.01,weatherlink.com 1.10,2013-09-21 19:06:00,
2013-09-21 14:21:00,81.1,49.0,29.89,NE,41,4.0,13.0,33,0.00,,,0.01,weatherlink.com 1.10,2013-09-21 19:21:00,
2013-09-21 14:36:00,81.8,49.0,29.89,NE,42,8.0,13.0,32,0.00,,,0.01,weatherlink.com 1.10,2013-09-21 19:36:00,
2013-09-21 14:51:00,81.6,49.0,29.88,NNE,15,7.0,15.0,32,0.00,,,0.01,weatherlink.com 1.10,2013-09-21 19:51:00,
2013-09-21 15:06:00,81.8,49.0,29.87,NNE,22,4.0,14.0,32,0.00,,,0.01,weatherlink.com 1.10,2013-09-21 20:06:00,
2013-09-21 15:21:00,82.4,49.0,29.87,North,5,8.0,13.0,31,0.00,,,0.01,weatherlink.com 1.10,2013-09-21 20:21:00,
2013-09-21 15:36:00,82.8,48.0,29.87,North,11,7.0,15.0,30,0.00,,,0.01,weatherlink.com 1.10,2013-09-21 20:36:00,
2013-09-21 15:51:00,82.9,48.0,29.86,NE,40,1.0,9.0,29,0.00,,,0.01,weatherlink.com 1.10,2013-09-21 20:51:00,
2013-09-21 16:06:00,83.2,50.0,29.86,NE,39,3.0,10.0,31,0.00,,,0.01,weatherlink.com 1.10,2013-09-21 21:06:00,
2013-09-21 16:21:00,83.6,49.0,29.86,NNE,22,5.0,13.0,30,0.00,,,0.01,weatherlink.com 1.10,2013-09-21 21:21:00,
2013-09-21 16:36:00,83.5,48.0,29.86,ENE,69,0.0,7.0,29,0.00,,,0.01,weatherlink.com 1.10,2013-09-21 21:36:00,
2013-09-21 16:51:00,83.6,49.0,29.86,NNE,21,5.0,9.0,30,0.00,,,0.01,weatherlink.com 1.10,2013-09-21 21:51:00,
2013-09-21 17:07:00,83.5,50.0,29.85,NNW,344,3.0,11.0,31,0.00,,,0.01,weatherlink.com 1.10,2013-09-21 22:07:00,
2013-09-21 17:22:00,83.2,50.0,29.85,East,96,5.0,8.0,31,0.00,,,0.01,weatherlink.com 1.10,2013-09-21 22:22:00,
2013-09-21 17:37:00,83.0,49.0,29.84,North,9,7.0,9.0,30,0.00,,,0.01,weatherlink.com 1.10,2013-09-21 22:37:00,
2013-09-21 17:52:00,82.9,48.0,29.85,NE,35,0.0,9.0,30,0.00,,,0.01,weatherlink.com 1.10,2013-09-21 22:52:00,
2013-09-21 18:07:00,83.1,49.0,29.85,East,88,1.0,7.0,30,0.00,,,0.01,weatherlink.com 1.10,2013-09-21 23:07:00,
2013-09-21 18:22:00,82.0,48.0,29.85,North,360,2.0,10.0,31,0.00,,,0.01,weatherlink.com 1.10,2013-09-21 23:22:00,
2013-09-21 18:37:00,80.6,49.0,29.85,NNE,17,2.0,5.0,33,0.00,,,0.01,weatherlink.com 1.10,2013-09-21 23:37:00,
2013-09-21 18:52:00,79.7,49.0,29.85,NNE,33,0.0,7.0,34,0.00,,,0.01,weatherlink.com 1.10,2013-09-21 23:52:00,
2013-09-21 19:07:00,78.6,49.0,29.85,NNE,17,0.0,6.0,36,0.00,,,0.01,weatherlink.com 1.10,2013-09-22 00:07:00,
2013-09-21 19:22:00,77.4,50.0,29.85,NE,40,2.0,3.0,39,0.00,,,0.01,weatherlink.com 1.10,2013-09-22 00:22:00,
2013-09-21 19:37:00,75.8,51.0,29.85,NE,39,1.0,3.0,42,0.00,,,0.01,weatherlink.com 1.10,2013-09-22 00:37:00,
2013-09-21 19:52:00,74.3,51.0,29.85,NE,39,2.0,3.0,44,0.00,,,0.01,weatherlink.com 1.10,2013-09-22 00:52:00,
2013-09-21 20:07:00,73.2,51.0,29.85,NE,34,0.0,3.0,45,0.00,,,0.01,weatherlink.com 1.10,2013-09-22 01:07:00,
2013-09-21 20:22:00,72.5,50.0,29.85,NNE,31,1.0,3.0,46,0.00,,,0.01,weatherlink.com 1.10,2013-09-22 01:22:00,
2013-09-21 20:37:00,72.0,52.0,29.86,NNE,15,0.0,2.0,49,0.00,,,0.01,weatherlink.com 1.10,2013-09-22 01:37:00,
2013-09-21 20:52:00,71.1,51.0,29.86,NNE,15,0.0,1.0,49,0.00,,,0.01,weatherlink.com 1.10,2013-09-22 01:52:00,
2013-09-21 21:07:00,69.9,50.0,29.86,NNE,15,0.0,2.0,49,0.00,,,0.01,weatherlink.com 1.10,2013-09-22 02:07:00,
2013-09-21 21:22:00,69.4,51.0,29.87,NNE,15,0.0,1.0,52,0.00,,,0.01,weatherlink.com 1.10,2013-09-22 02:22:00,
2013-09-21 21:37:00,68.6,51.0,29.87,NNE,15,0.0,1.0,53,0.00,,,0.01,weatherlink.com 1.10,2013-09-22 02:37:00,
2013-09-21 21:52:00,68.0,51.0,29.87,NNE,15,0.0,1.0,54,0.00,,,0.01,weatherlink.com 1.10,2013-09-22 02:52:00,
2013-09-21 22:07:00,67.3,51.0,29.87,NNE,15,0.0,0.0,57,0.00,,,0.01,weatherlink.com 1.10,2013-09-22 03:07:00,
2013-09-21 22:22:00,66.6,51.0,29.87,NNE,15,0.0,2.0,57,0.00,,,0.01,weatherlink.com 1.10,2013-09-22 03:22:00,
2013-09-21 22:37:00,66.6,51.0,29.87,NNE,15,0.0,0.0,58,0.00,,,0.01,weatherlink.com 1.10,2013-09-22 03:37:00,
2013-09-21 22:52:00,66.2,51.0,29.87,NNE,15,0.0,0.0,58,0.00,,,0.01,weatherlink.com 1.10,2013-09-22 03:52:00,
2013-09-21 23:07:00,66.2,50.0,29.87,NNE,15,0.0,1.0,56,0.00,,,0.01,weatherlink.com 1.10,2013-09-22 04:07:00,
2013-09-21 23:22:00,66.3,50.0,29.88,NNE,15,0.0,1.0,56,0.00,,,0.01,weatherlink.com 1.10,2013-09-22 04:22:00,
2013-09-21 23:37:00,65.4,51.0,29.88,NNE,15,0.0,4.0,60,0.00,,,0.01,weatherlink.com 1.10,2013-09-22 04:37:00,
2013-09-21 23:52:00,65.0,51.0,29.88,NE,47,0.0,2.0,60,0.00,,,0.01,weatherlink.com 1.10,2013-09-22 04:52:00,